[ hide orbit diagram ]
For accurate long-term ephemerides, please instead use our Horizons system.This orbit viewer was implemented using two-body methods, and hence should not be used for determining accurate long-term trajectories (over several years or decades) or planetary encounter circumstances.
Orbital Elements at Epoch 2459200.5 (2020-Dec-17.0) TDB
Reference: JPL 25 (heliocentric ecliptic J2000)
Element | Value | Uncertainty (1-sigma) | Units |
e | .1658347957789204 | 4.6009e-08 | |
a | 2.561815928438847 | 1.0372e-08 | au |
q | 2.136977707123005 | 1.1402e-07 | au |
i | 5.168004791225083 | 3.396e-06 | deg |
node | 157.8811592584906 | 4.9852e-05 | deg |
peri | 207.7638509160208 | 5.1436e-05 | deg |
M | 131.7994820514366 | 1.3728e-05 | deg |
tp | 2458652.183251076619 (2019-Jun-17.68325108) | 5.6432e-05 | TDB |
period | 1497.684410742839 4.10 | 9.0957e-06 2.49e-08 | d yr |
n | .2403710671071504 | 1.4598e-09 | deg/d |
Q | 2.986654149754689 | 1.2092e-08 | au |
|
| | Orbit Determination Parameters
Additional Information
|
[ show covariance matrix ]
Physical Parameter Table
Parameter |
Symbol |
Value |
Units |
Sigma |
Reference |
Notes |
absolute magnitude |
H |
14.6 |
|
n/a |
MPO502268 |
|
|
13134 (1994 QR) Discovered 1994-Aug-16 by Kobayashi, T. at Oizumi |
Reference: 20000124/Numbers.arc | Last Updated: 2004-04-19 |
|
[ show close-approach data ]
Alternate Designations
1994 QR = 1953 RZ1 = 1998 OE10 |
|
|